STARLINK-32942, 63120

Orbit data source: Space-Track

STARLINK-32942, 63120 is a payload satellite owned by SpaceX/Seattle (US) in LEO that was launched on Thu, 27 Feb 2025 UTC via an FALCON 9 launch vehicle from the Air Force Eastern Test Range (AFETR). Payload-class satellites include a variety of spacecraft equipped with specific instruments for various scientific and technological missions. These include communications satellites like Starlink; space stations such as the ISS; scientific satellites like the Hubble; Earth observation satellites from companies like Planet Labs, Umbra, and HawkEye 360; GPS; miniature CubeSats for education and research; and military/defense satellites.

Loading next visibility...
Identifier
63120, 2025-039S
Orbit
LEO
Country
Flag of USUS
Related business
Manufacturer
SpaceX/Seattle
Mission
Operational Commercial Communications
Bus & Motor
STARLINK V2M, Unknown motor
Mass
730 kg wet, ~700 kg dry
Launch date (UTC)
2025-02-27 (1 year ago)
Launch vehicle
FALCON 9
Launch site
Air Force Eastern Test Range (AFETR)
Object type
Payload
Rocket body
Debris
Shape & HBR
Box + 2 Pan, 17.7 m
Radar Cross Section
33.884 m², Large (>1 m²)

Expand to show TLE details & history
Last TLE update: 8 hours ago

TLE from 8 hours ago
0 STARLINK-32942
1 63120U 25039S   26110.44511934  .00005019  00000-0  19181-3 0  9990
2 63120  42.9972 136.8891 0001447 276.5178  83.5509 15.27574954 64453
Epoch: 2026-04-20T10:40Z
TLE epoch observation values (Epoch: 2026-04-20T10:40:58.310Z)
Latitude
-0.00003°
Longitude
128.11096°
Altitude
482.728 km
Speed
7.626 km/s
True Right ascension
09h 07m 33s
True Declination
0° 00' 00"
Sunlit
Object was in daylight at epoch
Visualization orbit readout
Latitude
Unknown
Longitude
Unknown
Altitude
Unknown
Speed
Unknown
Apparent Right ascension
Unknown
Apparent Declination
Unknown
Sunlit
N/A
Visualization observer readout
Local Sidereal Time
01:52:46
Azimuth
Unknown
Elevation
Unknown
Doppler factor
Unknown
Orbital elements
Apogee altitude
486.003 km
Perigee altitude
484.017 km
Semi-major axis
6,863.147 km
Eccentricity
0.00014
Inclination
42.9972°
RAAN
136.8891°
Arg. of periapsis
276.5178°
True anomaly
83.56738°
Mean anomaly
83.5509°
Eccentric anomaly
83.55914°
Mean motion
3.81732 °/min
Orbital period
94.31 mins
BSTAR
0.00019181
Loading maneuver chart data...
Computing Atmospheric mass density...
Loading historical data...
Loading historical data...
Loading historical data...
Loading historical data...
Loading historical data...
Loading historical data...
Loading historical data...

Documentation

Showing up to 5 results
|